Weather History for KGEZ - June, 2014

Change the Weather History Date:

Thursday, June 5, 2014

  Actual Average Record
Temperature  
Mean Temperature 69 °F 69 °F  
Max Temperature 78 °F 80 °F 90 °F (2005)
Min Temperature 59 °F 59 °F 48 °F (2003)
Degree Days  
Heating Degree Days 0 1  
Month to date heating degree days 0 5  
Since 1 June heating degree days 0 5  
Since 1 July heating degree days 5702 5400  
Cooling Degree Days 4 5  
Month to date cooling degree days 47 24  
Year to date cooling degree days 210 105  
Since 1 June cooling degree days 47 24  
Growing Degree Days 19 (Base 50)    
Moisture  
Dew Point 55 °F    
Average Humidity 62    
Maximum Humidity 84    
Minimum Humidity 40    
Precipitation  
Precipitation 0.00 in 0.16 in 0.61 in (2002)
Month to date precipitation 2.43 0.82  
Year to date precipitation 17.92 18.60  
Sea Level Pressure  
Sea Level Pressure 29.90 in    
Wind  
Wind Speed 7 mph (NE)    
Max Wind Speed 15 mph    
Max Gust Speed 17 mph    
Visibility 10 miles    
Events      
T = Trace of Precipitation, MM = Missing Value Source: NWS Daily Summary

Daily Weather History Graph

Daily Weather History Graph

Search for Another Location

Airport or City:

Trip Planner

Search our weather history database for the weather conditions in past years. The results will help you decide how hot, cold, wet, or windy it might be!

Date:

Astronomy

Jun. 05, 2014 Rise Set
Actual Time 6:16 AM EDT 9:07 PM EDT
Civil Twilight 5:44 AM EDT 9:39 PM EDT
Nautical Twilight 5:03 AM EDT 10:20 PM EDT
Astronomical Twilight 4:17 AM EDT 11:06 PM EDT
Moon 1:30 PM EDT (6/5) 1:36 AM EDT (6/5)
Length of Visible Light 15h 55m
Length of Day
14h 51m
Waxing Crescent, 48% of the Moon is Illuminated
Jun 5
Waxing Crescent
Jun 5
First Quarter
Jun 13
Full
Jun 19
Last Quarter
Jun 27
New

Hourly Weather History & Observations

Time (EDT) Temp. Dew Point Humidity Pressure Visibility Wind Dir Wind Speed Gust Speed Precip Events Conditions
12:06 AM 64.0 °F 57.0 °F 78% 29.84 in 10.0 mi NNE 12.7 mph 21.9 mph N/A   Overcast
12:45 AM 63.0 °F 55.9 °F 78% 29.85 in 10.0 mi NE 10.4 mph - N/A   Overcast
12:53 AM 63.0 °F 57.0 °F 81% 29.84 in 10.0 mi NNE 6.9 mph - N/A   Overcast
1:53 AM 63.0 °F 55.0 °F 75% 29.86 in 10.0 mi NE 9.2 mph - N/A   Overcast
2:30 AM 62.1 °F 55.9 °F 80% 29.88 in 10.0 mi NNE 8.1 mph - N/A   Scattered Clouds
2:53 AM 62.1 °F 55.0 °F 78% 29.85 in 10.0 mi NNE 11.5 mph - N/A   Clear
3:53 AM 61.0 °F 55.0 °F 81% 29.86 in 10.0 mi North 6.9 mph - N/A   Clear
4:34 AM 61.0 °F 55.9 °F 83% 29.89 in 10.0 mi NNE 5.8 mph - N/A   Mostly Cloudy
4:53 AM 61.0 °F 55.0 °F 81% 29.87 in 10.0 mi NNE 9.2 mph - N/A   Mostly Cloudy
5:50 AM 60.8 °F 55.4 °F 82% 29.90 in 10.0 mi NNE 8.1 mph - N/A   Scattered Clouds
5:53 AM 60.1 °F 55.0 °F 83% 29.88 in 10.0 mi NNE 6.9 mph - N/A   Scattered Clouds
6:53 AM 60.1 °F 55.0 °F 83% 29.91 in 8.0 mi NE 5.8 mph - N/A   Clear
7:53 AM 62.1 °F 55.9 °F 80% 29.93 in 10.0 mi NNE 6.9 mph - N/A   Clear
8:53 AM 64.9 °F 55.9 °F 73% 29.92 in 10.0 mi NE 10.4 mph - N/A   Clear
9:53 AM 68.0 °F 57.0 °F 68% 29.91 in 10.0 mi ENE 10.4 mph - N/A   Clear
10:53 AM 70.0 °F 55.9 °F 61% 29.95 in 10.0 mi NE 6.9 mph - N/A   Clear
11:53 AM 73.0 °F 55.0 °F 53% 29.94 in 10.0 mi East 6.9 mph - N/A   Clear
12:53 PM 75.0 °F 55.9 °F 51% 29.93 in 10.0 mi ENE 9.2 mph - N/A   Clear
1:53 PM 75.9 °F 55.0 °F 48% 29.94 in 10.0 mi North 9.2 mph - N/A   Scattered Clouds
2:53 PM 77.0 °F 54.0 °F 45% 29.92 in 10.0 mi NNE 8.1 mph - N/A   Clear
3:53 PM 78.1 °F 54.0 °F 43% 29.91 in 10.0 mi NNE 8.1 mph - N/A   Clear
4:53 PM 77.0 °F 53.1 °F 43% 29.88 in 10.0 mi NNE 5.8 mph - N/A   Clear
5:53 PM 77.0 °F 53.1 °F 43% 29.88 in 10.0 mi Calm Calm - N/A   Clear
6:53 PM 77.0 °F 51.1 °F 40% 29.89 in 10.0 mi NE 5.8 mph - N/A   Clear
7:53 PM 75.0 °F 52.0 °F 44% 29.91 in 10.0 mi NNE 5.8 mph - N/A   Clear
8:53 PM 71.1 °F 54.0 °F 55% 29.91 in 10.0 mi NNE 4.6 mph - N/A   Clear
9:53 PM 69.1 °F 54.0 °F 58% 29.92 in 10.0 mi NNE 4.6 mph - N/A   Clear
10:53 PM 66.9 °F 55.0 °F 66% 29.94 in 10.0 mi North 4.6 mph - N/A   Clear
11:53 PM 63.0 °F 55.9 °F 78% 29.95 in 10.0 mi ENE 4.6 mph - N/A   Clear